Le nostre stazioni meteo in Italia

Pubblicità
Il mio iltempo24.it
Lulea/Kallax, Svezia (2186): Temperatura & dewpoint: 12.01.2020 09:00:00 - 18.01.2020 09:00:00 (CET)Lulea/Kallax, Svezia (2186): velocità del vento & gusts: 12.01.2020 09:00:00 - 18.01.2020 09:00:00 (CET)Lulea/Kallax, Svezia (2186): direzione del vento: 12.01.2020 09:00:00 - 18.01.2020 09:00:00 (CET)Lulea/Kallax, Svezia (2186): reduced air pressure: 12.01.2020 09:00:00 - 18.01.2020 09:00:00 (CET)Lulea/Kallax, Svezia (2186): visibility: 12.01.2020 09:00:00 - 18.01.2020 09:00:00 (CET)Lulea/Kallax, Svezia (2186): precipitazioni: 12.01.2020 09:00:00 - 18.01.2020 09:00:00 (CET)
Data & Tempo tt [°C] td [°C] ff [km/h] ff [kn] fx [km/h] fx [kn] dd ppp [hPa] vv [km] rr [mm]
18.01.2020 09:00:00 -6,6 -7,5 13 7 22 12 N 1005,8 4,0 0,0
18.01.2020 08:00:00 -6,9 -8,0 16 9 25 14 N 1006,1 3,5 0,0
18.01.2020 07:00:00 -7,2 -8,1 15 8 22 12 NNO 1006,6 5 0,0
18.01.2020 06:00:00 -7,2 -8,1 11 6 22 12 N 1007,2 3,9 0,0
18.01.2020 05:00:00 -7,2 -8,1 11 6 18 10 N 1007,9 5 0,1
18.01.2020 04:00:00 -7,3 -8,2 11 6 18 10 N 1008,4 3,6 0,0
18.01.2020 03:00:00 -7,4 -8,5 11 6 18 10 N 1009,1 2,7 0,2
18.01.2020 02:00:00 -7,5 -8,4 9 5 14 8 N 1009,7 2,6 0,1
18.01.2020 01:00:00 -7,6 -8,5 9 5 14 8 N 1010,1 1,7 0,2
18.01.2020 00:00:00 -7,7 -8,9 8 4 18 10 N 1010,5 10 0,0
17.01.2020 23:00:00 -7,8 -9,0 8 4 18 10 NNE 1011,0 10 0,0
17.01.2020 22:00:00 -8,0 -9,3 8 4 14 8 NNE 1011,5 10 0,0
17.01.2020 21:00:00 -8,1 -9,6 9 5 18 10 NNE 1012,0 10 0,0
17.01.2020 20:00:00 -8,1 -9,7 8 4 18 10 NNE 1011,8 10 0,0
17.01.2020 19:00:00 -8,2 -9,8 9 5 22 12 NNE 1012,0 10 0,0
17.01.2020 18:00:00 -8,2 -9,8 9 5 14 8 N 1012,5 10 0,0
17.01.2020 17:00:00 -8,2 -9,8 9 5 14 8 N 1012,6 10 0,0
17.01.2020 16:00:00 -8,0 -9,8 5 3 11 6 N 1012,6 10 0,0
17.01.2020 15:00:00 -8,6 -10,1 5 3 7 4 N 1012,6 10 0,0
17.01.2020 14:00:00 -8,0 -9,6 5 3 18 10 N 1011,9 10 0,0
17.01.2020 13:00:00 -7,9 -9,7 9 5 18 10 N 1011,1 10 0,0
17.01.2020 12:00:00 -7,2 -8,6 9 5 18 10 N 1010,7 10 0,0
17.01.2020 11:00:00 -7,4 -8,5 11 6 18 10 N 1009,9 10 0,0
17.01.2020 10:00:00 -7,6 -8,7 8 4 22 12 N 1009,4 10 0,0
17.01.2020 09:00:00 -9,2 -10,1 9 5 18 10 N 1008,3 10 0,0
17.01.2020 08:00:00 -10,3 -11,3 8 4 22 12 N 1007,2 10 0,0
17.01.2020 07:00:00 -9,0 -9,8 13 7 22 12 N 1006,2 4,0 0,0
17.01.2020 06:00:00 -10,3 -11,2 8 4 11 6 N 1005,4 10 0,0
17.01.2020 05:00:00 -10,7 -11,7 5 3 11 6 N 1004,2 10 0,0
17.01.2020 04:00:00 -9,9 -10,8 4 2 7 4 NNO 1003,9 10 0,0
17.01.2020 03:00:00 -9,2 -10,1 5 3 7 4 NNO 1003,5 10 0,0
17.01.2020 02:00:00 -8,3 -9,1 8 4 11 6 NNO 1002,9 10 0,0
17.01.2020 01:00:00 -6,8 -7,5 0 0 7 4 N 1002,4 10 0,0
17.01.2020 00:00:00 -5,7 -6,4 4 2 7 4 - 1002,1 10 0,0
16.01.2020 23:00:00 -3,4 -3,9 8 4 18 10 SSO 1001,8 10 0,0
16.01.2020 22:00:00 -2,8 -3,2 11 6 18 10 SSO 1001,9 10 0,0
16.01.2020 21:00:00 -2,8 -3,2 9 5 22 12 SO 1002,0 10 0,0
16.01.2020 20:00:00 -4,4 -5,1 9 5 14 8 S 1002,3 3,5 0,0
16.01.2020 19:00:00 -5,9 -6,6 9 5 11 6 SE 1002,8 10 0,0
16.01.2020 18:00:00 -7,1 -7,9 2 1 11 6 - 1002,9 10 0,0
16.01.2020 17:00:00 -7,5 -8,2 5 3 11 6 SE 1003,2 10 0,0
16.01.2020 16:00:00 -8,6 -9,5 5 3 7 4 SO 1003,7 10 0,0
16.01.2020 15:00:00 -8,7 -9,6 2 1 7 4 - 1003,1 10 0,0
16.01.2020 14:00:00 -7,6 -8,7 2 1 7 4 N 1002,5 10 0,0
16.01.2020 13:00:00 -7,6 -8,5 4 2 11 6 - 1002,6 10 0,0
16.01.2020 12:00:00 -8,1 -9,0 5 3 11 6 N 1001,8 10 0,0
16.01.2020 11:00:00 -9,3 -10,4 5 3 11 6 N 1001,0 10 0,0
16.01.2020 10:00:00 -9,9 -11,0 5 3 11 6 NO 1000,5 10 0,0
16.01.2020 09:00:00 -9,0 -10,1 4 2 11 6 - 999,2 10 0,0
16.01.2020 08:00:00 -8,4 -9,5 8 4 14 8 N 998,2 10 0,0
16.01.2020 07:00:00 -8,0 -9,1 9 5 14 8 N 997,4 10 0,0
16.01.2020 06:00:00 -7,7 -8,8 9 5 14 8 NNO 997,0 10 0,0
16.01.2020 05:00:00 -7,2 -8,1 11 6 18 10 NNO 996,1 10 0,0
16.01.2020 04:00:00 -7,0 -7,9 15 8 22 12 N 995,5 2,0 0,1
16.01.2020 03:00:00 -6,9 -7,7 9 5 22 12 N 995,2 9 0,0
16.01.2020 02:00:00 -6,6 -7,4 13 7 18 10 NNO 994,2 4,4 0,0
16.01.2020 01:00:00 -6,5 -7,2 11 6 22 12 N 993,2 5 0,0
16.01.2020 00:00:00 -6,7 -7,4 8 4 14 8 N 992,0 10 0,0
15.01.2020 23:00:00 -6,7 -7,5 11 6 18 10 N 991,3 10 0,0
15.01.2020 22:00:00 -5,9 -6,6 8 4 14 8 NNE 990,2 10 0,0
15.01.2020 21:00:00 -4,8 -5,5 13 7 18 10 N 988,7 10 0,0
15.01.2020 20:00:00 -3,6 -4,0 9 5 14 8 NNO 987,5 5 0,0
15.01.2020 19:00:00 -3,8 -4,1 8 4 11 6 NNO 986,4 1,0 0,0
15.01.2020 18:00:00 -3,3 -3,6 9 5 11 6 ONO 985,3 0,4 0,0
15.01.2020 17:00:00 -2,0 -2,3 4 2 7 4 ONO 984,5 0,3 0,0
15.01.2020 16:00:00 -1,3 -1,6 0 0 7 4 N 983,7 0,2 0,0
15.01.2020 15:00:00 -1,2 -1,5 2 1 7 4 - 983,2 0,2 0,0
15.01.2020 14:00:00 -1,3 -1,6 0 0 7 4 N 983,4 0,2 0,0
15.01.2020 13:00:00 -0,8 -1,1 5 3 11 6 SSO 983,3 0,9 0,0
15.01.2020 12:00:00 -2,4 -2,7 5 3 14 8 S 983,1 8 0,0
15.01.2020 11:00:00 -1,9 -2,2 5 3 18 10 SSE 983,8 10 0,0
15.01.2020 10:00:00 -3,8 -4,1 2 1 7 4 ESE 983,9 10 0,0
15.01.2020 09:00:00 -3,1 -3,4 4 2 7 4 SE 984,2 10 0,0
15.01.2020 08:00:00 -1,3 -2,0 5 3 14 8 SSE 984,0 10 0,0
15.01.2020 07:00:00 -0,6 -1,3 11 6 14 8 SSO 984,2 10 0,0
15.01.2020 06:00:00 -0,6 -1,3 8 4 14 8 SSO 984,1 10 0,0
15.01.2020 05:00:00 0,1 -0,8 9 5 18 10 SSO 984,1 10 0,0
15.01.2020 04:00:00 0,6 -0,4 9 5 22 12 SO 983,8 10 0,0
15.01.2020 03:00:00 0,6 -0,3 9 5 18 10 SO 983,6 10 0,0
15.01.2020 02:00:00 0,9 -0,3 15 8 25 14 SSO 983,8 10 0,0
15.01.2020 01:00:00 0,6 -0,3 13 7 18 10 SSO 983,5 10 0,0
15.01.2020 00:00:00 1,1 0,2 11 6 18 10 SSO 983,2 10 0,0
14.01.2020 23:00:00 1,5 0,5 13 7 22 12 SO 983,2 10 0,0
14.01.2020 22:00:00 1,2 0,6 11 6 25 14 SO 983,0 10 0,0
14.01.2020 21:00:00 1,3 0,7 18 10 29 16 SSO 982,9 10 0,0
14.01.2020 20:00:00 1,0 0,6 22 12 36 19 S 983,1 10 0,2
14.01.2020 19:00:00 0,8 0,2 28 15 43 23 S 983,7 5 0,3
14.01.2020 18:00:00 0,9 0,3 34 18 50 27 S 984,5 9 0,0
14.01.2020 17:00:00 1,1 0,5 34 18 54 29 S 986,0 10 0,0
14.01.2020 16:00:00 0,8 0,2 34 18 47 25 S 987,5 3,5 0,4
14.01.2020 15:00:00 1,4 0,5 31 17 47 25 S 989,5 10 0,0
14.01.2020 14:00:00 1,3 0,0 21 11 32 18 S 990,8 10 0,0
14.01.2020 13:00:00 0,1 -2,3 9 5 25 14 S 991,9 10 0,0
14.01.2020 12:00:00 -0,3 -3,8 16 9 29 16 S 992,7 10 0,0
14.01.2020 11:00:00 -0,4 -3,9 16 9 32 18 SSO 993,0 10 0,0
14.01.2020 10:00:00 -1,5 -3,5 11 6 18 10 SSE 993,0 10 0,0
14.01.2020 09:00:00 -0,7 -3,9 8 4 18 10 SSO 993,6 10 0,0
14.01.2020 08:00:00 -0,8 -3,3 11 6 18 10 SO 994,0 10 0,0
14.01.2020 07:00:00 -1,5 -3,9 0 0 11 6 N 993,9 10 0,0
14.01.2020 06:00:00 -0,3 -3,0 5 3 14 8 S 994,8 10 0,0
14.01.2020 05:00:00 -0,1 -3,1 11 6 18 10 SO 994,8 10 0,0
14.01.2020 04:00:00 0,1 -3,1 15 8 22 12 OSO 994,7 10 0,0
14.01.2020 03:00:00 -0,2 -3,1 11 6 18 10 SO 994,5 10 0,0
14.01.2020 02:00:00 -0,4 -3,3 8 4 18 10 OSO 994,3 10 0,0
14.01.2020 01:00:00 -0,2 -3,2 9 5 18 10 SO 994,0 10 0,0
14.01.2020 00:00:00 -0,3 -3,5 9 5 14 8 SSO 993,5 10 0,0
13.01.2020 23:00:00 -0,1 -3,6 8 4 18 10 OSO 992,8 10 0,0
13.01.2020 22:00:00 0,8 -3,1 11 6 25 14 O 992,2 10 0,0
13.01.2020 21:00:00 0,7 -3,8 8 4 14 8 OSO 990,8 10 0,0
13.01.2020 20:00:00 -0,2 -5,0 8 4 18 10 SO 989,9 10 0,0
13.01.2020 19:00:00 -0,3 -4,7 11 6 25 14 SO 989,9 10 0,0
13.01.2020 18:00:00 -0,2 -4,3 16 9 29 16 SSO 990,2 10 0,0
13.01.2020 17:00:00 -0,4 -4,1 16 9 29 16 SSO 990,6 10 0,0
13.01.2020 16:00:00 -1,3 -4,1 13 7 25 14 SSO 991,7 10 0,0
13.01.2020 15:00:00 -1,6 -4,3 15 8 25 14 SO 992,2 10 0,0
13.01.2020 14:00:00 -1,6 -4,6 11 6 18 10 SO 991,9 10 0,0
13.01.2020 13:00:00 -1,7 -4,7 8 4 25 14 SSO 992,1 10 0,0
13.01.2020 12:00:00 -1,1 -4,3 15 8 25 14 SO 991,9 10 0,0
13.01.2020 11:00:00 -1,5 -4,5 15 8 22 12 OSO 992,5 10 0,0
13.01.2020 10:00:00 -3,2 -5,4 8 4 14 8 O 992,1 10 0,0
13.01.2020 09:00:00 -3,5 -5,3 8 4 18 10 SSO 992,1 10 0,0
13.01.2020 08:00:00 -3,1 -5,4 13 7 18 10 OSO 991,5 10 0,0
13.01.2020 07:00:00 -2,8 -5,3 11 6 22 12 OSO 991,4 10 0,0
13.01.2020 06:00:00 -2,5 -5,0 16 9 22 12 OSO 991,1 10 0,0
13.01.2020 05:00:00 -2,7 -5,2 2 1 14 8 - 991,2 10 0,0
13.01.2020 04:00:00 -2,4 -4,7 9 5 18 10 OSO 991,3 10 0,0
13.01.2020 03:00:00 -2,4 -4,7 11 6 18 10 SO 991,1 10 0,0
13.01.2020 02:00:00 -3,0 -5,2 11 6 18 10 OSO 991,0 10 0,0
13.01.2020 01:00:00 -3,2 -5,7 5 3 18 10 SE 990,9 10 0,0
13.01.2020 00:00:00 -1,7 -4,9 13 7 22 12 OSO 990,7 10 0,0
12.01.2020 23:00:00 -3,0 -5,5 2 1 14 8 - 990,4 10 0,0
12.01.2020 22:00:00 -1,7 -4,7 9 5 22 12 O 990,1 10 0,0
12.01.2020 21:00:00 -1,2 -4,5 18 10 25 14 O 989,5 10 0,0
12.01.2020 20:00:00 -0,9 -4,3 13 7 22 12 OSO 988,8 10 0,0
12.01.2020 19:00:00 -0,9 -4,3 13 7 25 14 OSO 988,6 10 0,0
12.01.2020 18:00:00 0,2 -3,9 16 9 25 14 O 988,4 10 0,0
12.01.2020 17:00:00 0,5 -4,0 9 5 18 10 O 988,1 10 0,0
12.01.2020 16:00:00 -0,3 -4,7 9 5 14 8 OSO 987,6 10 0,0
12.01.2020 15:00:00 0,8 -4,8 5 3 29 16 OSO 987,0 10 0,0
12.01.2020 14:00:00 2,2 -4,3 22 12 36 19 O 986,1 10 0,0
12.01.2020 13:00:00 2,7 -3,6 29 16 40 21 O 985,8 10 0,0
12.01.2020 12:00:00 2,4 -3,3 16 9 29 16 O 985,0 10 0,0
12.01.2020 11:00:00 1,7 -2,8 13 7 22 12 O 984,1 10 0,0
12.01.2020 10:00:00 0,4 -2,6 5 3 18 10 SO 983,3 10 0,0
12.01.2020 09:00:00 1,0 -2,1 5 3 22 12 OSO 982,5 10 0,0

tt = Temperatura
td = dewpoint
ff = velocità del vento
fx = gusts
dd = direzione del vento
ppp = reduced air pressure
vv = visibility
rr = precipitazioni

Stazioni seguenti

WeatherPro
AMSI
MeteoEarth